Terminal Aerodrome Forecast
Issued by NWS New Orleans/Baton Rouge, LA

Home | Current Version | Previous Version | Text Only | Print | Product List | Glossary On
Versions: 1 2 3 4 5 6 7 8 9 10 11 12 13 14 15 16 17 18 19 20 21 22 23 24 25
000
FTUS44 KLIX 191700 RRA
TAFNEW
TAF
KNEW 191740Z 1918/2018 08011KT 5SM -RA BR SCT006 OVC018
      TEMPO 1918/1922 3SM SHRA BKN006
     FM192200 06011KT 5SM SHRA OVC010
     FM200600 06009KT P6SM OVC008
     FM201500 02011KT P6SM OVC008=

USA.gov is the U.S. government's official web portal to all federal, state and local government web resources and services.